User: anonymous   Login
Location: Gipe Farm
(40.9466°N, 95.5370°W)
Time: 06:56:21
(UTC-05:00)
Language:

Cosmos 2082 Rocket - Orbit

View from above orbital plane
View from above orbital plane
View from above satellite
View from above satellite

Ground track
Ground track

The orbit data is extracted from the following two-line orbital elements,

1 20625U 90046B   16272.14977855  .00000244  00000-0  15140-3 0  9992
2 20625  71.0013 339.0960 0013165 153.2444 206.9360 14.14607046360781
Epoch (UTC): 28 September 2016 03:35:40
Eccentricity: 0.0013165
inclination: 71.0013°
perigee height: 834 km
apogee height: 853 km
right ascension of ascending node: 339.0960°
argument of perigee: 153.2444°
revolutions per day: 14.14607046
mean anomaly at epoch: 206.9360°
orbit number at epoch: 36078

The dashed part of the orbit path shows where the satellite is in the earth's shadow,  

DLR